Time,TemperatureF,DewpointF,PressureIn,WindDirection,WindDirectionDegrees,WindSpeedMPH,WindSpeedGustMPH,Humidity,HourlyPrecipIn,Conditions,Clouds,dailyrainin,SoftwareType,DateUTC
2013-06-16 00:00:00,74.7,69.2,30.03,WSW,242,0.0,0.0,83,0.00,,,0.00,WeatherTracker,2013-06-16 05:00:00,
2013-06-16 00:10:00,74.5,69.3,30.03,WSW,242,0.0,0.0,84,0.00,,,0.00,WeatherTracker,2013-06-16 05:10:00,
2013-06-16 00:15:00,74.4,69.6,30.03,WSW,242,0.0,0.0,85,0.00,,,0.00,WeatherTracker,2013-06-16 05:15:00,
2013-06-16 00:20:00,74.3,69.5,30.03,WSW,242,0.0,0.0,85,0.00,,,0.00,WeatherTracker,2013-06-16 05:20:00,
2013-06-16 00:30:00,74.1,69.6,30.03,WSW,242,0.0,0.0,86,0.00,,,0.00,WeatherTracker,2013-06-16 05:30:00,
2013-06-16 00:35:00,74.1,70.0,30.03,WSW,242,0.0,0.0,87,0.00,,,0.00,WeatherTracker,2013-06-16 05:35:00,
2013-06-16 00:45:00,74.0,69.9,30.02,WSW,242,0.0,0.0,87,0.00,,,0.00,WeatherTracker,2013-06-16 05:45:00,
2013-06-16 00:55:00,74.0,70.2,30.02,WSW,242,0.0,0.0,88,0.00,,,0.00,WeatherTracker,2013-06-16 05:55:00,
2013-06-16 01:00:00,74.0,70.2,30.02,WSW,242,0.0,0.0,88,0.00,,,0.00,WeatherTracker,2013-06-16 06:00:00,
2013-06-16 01:10:00,74.0,70.5,30.02,WSW,241,0.0,0.0,89,0.00,,,0.00,WeatherTracker,2013-06-16 06:10:00,
2013-06-16 01:20:00,74.1,70.6,30.02,WSW,242,0.0,0.0,89,0.00,,,0.00,WeatherTracker,2013-06-16 06:20:00,
2013-06-16 01:25:00,74.2,71.1,30.02,WSW,242,0.0,0.0,90,0.00,,,0.00,WeatherTracker,2013-06-16 06:25:00,
2013-06-16 01:30:00,74.3,71.2,30.02,WSW,242,0.0,0.0,90,0.00,,,0.00,WeatherTracker,2013-06-16 06:30:00,
2013-06-16 01:35:00,74.3,71.2,30.03,WSW,242,0.0,0.0,90,0.00,,,0.00,WeatherTracker,2013-06-16 06:35:00,
2013-06-16 01:40:00,74.4,71.6,30.02,WSW,242,0.0,0.0,91,0.00,,,0.00,WeatherTracker,2013-06-16 06:40:00,
2013-06-16 01:50:00,74.6,71.8,30.03,WSW,242,0.0,0.0,91,0.00,,,0.00,WeatherTracker,2013-06-16 06:50:00,
2013-06-16 01:55:00,74.6,71.8,30.03,WSW,242,0.0,0.0,91,0.00,,,0.00,WeatherTracker,2013-06-16 06:55:00,
2013-06-16 02:05:00,74.8,72.0,30.02,WSW,242,0.0,0.0,91,0.00,,,0.00,WeatherTracker,2013-06-16 07:05:00,
2013-06-16 02:10:00,74.8,72.0,30.02,WSW,242,0.0,0.0,91,0.00,,,0.00,WeatherTracker,2013-06-16 07:10:00,
2013-06-16 02:20:00,74.7,71.9,30.03,WSW,242,0.0,0.0,91,0.00,,,0.00,WeatherTracker,2013-06-16 07:20:00,
2013-06-16 02:25:00,74.7,71.9,30.03,WSW,242,0.0,0.0,91,0.00,,,0.00,WeatherTracker,2013-06-16 07:25:00,
2013-06-16 02:35:00,74.7,71.9,30.02,WSW,242,0.0,0.0,91,0.00,,,0.00,WeatherTracker,2013-06-16 07:35:00,
2013-06-16 02:45:00,74.7,71.9,30.02,WSW,242,0.0,0.0,91,0.00,,,0.00,WeatherTracker,2013-06-16 07:45:00,
2013-06-16 02:55:00,74.8,72.0,30.02,WSW,242,0.0,0.0,91,0.00,,,0.00,WeatherTracker,2013-06-16 07:55:00,
2013-06-16 03:05:00,74.8,72.0,30.02,WSW,242,0.0,0.0,91,0.00,,,0.00,WeatherTracker,2013-06-16 08:05:00,
2013-06-16 03:10:00,74.7,71.9,30.02,South,184,0.0,2.0,91,0.00,,,0.00,WeatherTracker,2013-06-16 08:10:00,
2013-06-16 03:20:00,74.8,72.0,30.02,South,184,0.0,3.0,91,0.00,,,0.00,WeatherTracker,2013-06-16 08:20:00,
2013-06-16 03:30:00,74.8,72.3,30.02,South,184,0.0,5.0,92,0.00,,,0.00,WeatherTracker,2013-06-16 08:30:00,
2013-06-16 03:35:00,74.9,72.4,30.02,South,180,0.0,5.0,92,0.00,,,0.00,WeatherTracker,2013-06-16 08:35:00,
2013-06-16 03:45:00,74.9,72.1,30.02,SSE,163,4.0,5.0,91,0.00,,,0.00,WeatherTracker,2013-06-16 08:45:00,
2013-06-16 03:55:00,75.0,72.5,30.02,SSW,198,0.0,5.0,92,0.00,,,0.00,WeatherTracker,2013-06-16 08:55:00,
2013-06-16 04:05:00,75.1,72.6,30.02,South,186,1.0,5.0,92,0.00,,,0.00,WeatherTracker,2013-06-16 09:05:00,
2013-06-16 04:10:00,75.1,72.6,30.02,South,179,0.0,6.0,92,0.00,,,0.00,WeatherTracker,2013-06-16 09:10:00,
2013-06-16 04:20:00,75.1,72.6,30.02,SSE,156,2.0,6.0,92,0.00,,,0.00,WeatherTracker,2013-06-16 09:20:00,
2013-06-16 04:25:00,75.1,72.3,30.02,SE,133,4.0,7.0,91,0.00,,,0.00,WeatherTracker,2013-06-16 09:25:00,
2013-06-16 04:35:00,75.1,72.3,30.03,SSE,163,1.0,6.0,91,0.00,,,0.00,WeatherTracker,2013-06-16 09:35:00,
2013-06-16 04:40:00,75.1,72.3,30.03,SSE,162,0.0,5.0,91,0.00,,,0.00,WeatherTracker,2013-06-16 09:40:00,
2013-06-16 04:45:00,75.0,72.2,30.03,SSE,163,0.0,4.0,91,0.00,,,0.00,WeatherTracker,2013-06-16 09:45:00,
2013-06-16 04:50:00,75.0,72.2,30.03,SSE,163,0.0,2.0,91,0.00,,,0.00,WeatherTracker,2013-06-16 09:50:00,
2013-06-16 05:00:00,74.7,71.9,30.03,SSE,163,0.0,4.0,91,0.00,,,0.00,WeatherTracker,2013-06-16 10:00:00,
2013-06-16 05:10:00,74.4,71.6,30.03,SSE,163,0.0,1.0,91,0.00,,,0.00,WeatherTracker,2013-06-16 10:10:00,
2013-06-16 05:20:00,74.2,71.4,30.04,SSE,163,0.0,4.0,91,0.00,,,0.00,WeatherTracker,2013-06-16 10:20:00,
2013-06-16 05:30:00,73.9,71.1,30.04,SSE,147,0.0,4.0,91,0.00,,,0.00,WeatherTracker,2013-06-16 10:30:00,
2013-06-16 05:35:00,73.8,71.0,30.04,SE,126,0.0,6.0,91,0.00,,,0.00,WeatherTracker,2013-06-16 10:35:00,
2013-06-16 05:40:00,73.7,70.9,30.04,SE,126,0.0,6.0,91,0.00,,,0.00,WeatherTracker,2013-06-16 10:40:00,
2013-06-16 05:45:00,73.6,71.1,30.04,SE,126,0.0,4.0,92,0.00,,,0.00,WeatherTracker,2013-06-16 10:45:00,
2013-06-16 05:55:00,73.5,71.0,30.04,SSE,150,1.0,5.0,92,0.00,,,0.00,WeatherTracker,2013-06-16 10:55:00,
2013-06-16 06:05:00,73.4,70.9,30.05,SE,133,0.0,5.0,92,0.00,,,0.00,WeatherTracker,2013-06-16 11:05:00,
2013-06-16 06:15:00,73.4,70.9,30.05,SSE,163,2.0,5.0,92,0.00,,,0.00,WeatherTracker,2013-06-16 11:15:00,
2013-06-16 06:20:00,73.4,71.2,30.05,SSE,163,0.0,5.0,93,0.00,,,0.00,WeatherTracker,2013-06-16 11:20:00,
2013-06-16 06:25:00,73.4,71.2,30.05,SSE,163,0.0,4.0,93,0.00,,,0.00,WeatherTracker,2013-06-16 11:25:00,
2013-06-16 06:30:00,73.5,71.3,30.05,SW,226,0.0,4.0,93,0.00,,,0.00,WeatherTracker,2013-06-16 11:30:00,
2013-06-16 06:35:00,73.5,71.3,30.05,SSE,162,0.0,4.0,93,0.00,,,0.00,WeatherTracker,2013-06-16 11:35:00,
2013-06-16 06:45:00,73.9,71.7,30.05,SSE,154,4.0,5.0,93,0.00,,,0.00,WeatherTracker,2013-06-16 11:45:00,
2013-06-16 06:55:00,74.4,72.2,30.06,South,183,5.0,5.0,93,0.00,,,0.00,WeatherTracker,2013-06-16 11:55:00,
2013-06-16 07:00:00,74.8,72.3,30.06,South,181,2.0,6.0,92,0.00,,,0.00,WeatherTracker,2013-06-16 12:00:00,
2013-06-16 07:10:00,75.4,72.6,30.07,South,178,2.0,6.0,91,0.00,,,0.00,WeatherTracker,2013-06-16 12:10:00,
2013-06-16 07:20:00,76.2,73.0,30.07,SE,136,0.0,8.0,90,0.00,,,0.00,WeatherTracker,2013-06-16 12:20:00,
2013-06-16 07:25:00,76.6,73.1,30.07,SSE,167,7.0,7.0,89,0.00,,,0.00,WeatherTracker,2013-06-16 12:25:00,
2013-06-16 07:35:00,77.3,73.5,30.07,SE,143,2.0,10.0,88,0.00,,,0.00,WeatherTracker,2013-06-16 12:35:00,
2013-06-16 07:45:00,77.8,73.3,30.07,SSW,192,5.0,9.0,86,0.00,,,0.00,WeatherTracker,2013-06-16 12:45:00,
2013-06-16 07:50:00,78.1,73.6,30.07,SSE,161,7.0,10.0,86,0.00,,,0.00,WeatherTracker,2013-06-16 12:50:00,
2013-06-16 07:55:00,78.2,73.7,30.07,South,180,4.0,13.0,86,0.00,,,0.00,WeatherTracker,2013-06-16 12:55:00,
2013-06-16 08:05:00,79.1,74.2,30.07,SE,138,2.0,9.0,85,0.00,,,0.00,WeatherTracker,2013-06-16 13:05:00,
2013-06-16 08:15:00,79.9,74.6,30.07,South,177,5.0,11.0,84,0.00,,,0.00,WeatherTracker,2013-06-16 13:15:00,
2013-06-16 08:25:00,80.3,74.7,30.07,SSW,194,7.0,14.0,83,0.00,,,0.00,WeatherTracker,2013-06-16 13:25:00,
2013-06-16 08:30:00,80.5,74.8,30.07,SE,138,8.0,12.0,83,0.00,,,0.00,WeatherTracker,2013-06-16 13:30:00,
2013-06-16 08:40:00,81.2,75.2,30.08,South,176,5.0,12.0,82,0.00,,,0.00,WeatherTracker,2013-06-16 13:40:00,
2013-06-16 08:50:00,81.8,75.4,30.07,SSW,198,3.0,11.0,81,0.00,,,0.00,WeatherTracker,2013-06-16 13:50:00,
2013-06-16 08:55:00,82.1,75.3,30.07,SSW,198,2.0,11.0,80,0.00,,,0.00,WeatherTracker,2013-06-16 13:55:00,
2013-06-16 09:00:00,82.4,76.0,30.08,SW,224,7.0,11.0,81,0.00,,,0.00,WeatherTracker,2013-06-16 14:00:00,
2013-06-16 09:10:00,82.7,75.9,30.08,SSW,195,5.0,11.0,80,0.00,,,0.00,WeatherTracker,2013-06-16 14:10:00,
2013-06-16 09:15:00,82.9,75.7,30.08,SSW,202,5.0,11.0,79,0.00,,,0.00,WeatherTracker,2013-06-16 14:15:00,
2013-06-16 09:25:00,83.0,75.8,30.08,SSW,202,7.0,11.0,79,0.00,,,0.00,WeatherTracker,2013-06-16 14:25:00,
2013-06-16 09:30:00,83.8,76.6,30.07,SSE,164,2.0,9.0,79,0.00,,,0.00,WeatherTracker,2013-06-16 14:30:00,
2013-06-16 09:35:00,84.0,76.0,30.07,SSW,207,4.0,12.0,77,0.00,,,0.00,WeatherTracker,2013-06-16 14:35:00,
2013-06-16 09:40:00,84.4,76.8,30.07,South,190,5.0,12.0,78,0.00,,,0.00,WeatherTracker,2013-06-16 14:40:00,
2013-06-16 09:45:00,84.5,76.5,30.07,South,171,8.0,9.0,77,0.00,,,0.00,WeatherTracker,2013-06-16 14:45:00,
2013-06-16 09:50:00,84.5,76.5,30.07,WSW,240,3.0,9.0,77,0.00,,,0.00,WeatherTracker,2013-06-16 14:50:00,
2013-06-16 10:00:00,84.8,76.4,30.07,South,191,5.0,9.0,76,0.00,,,0.00,WeatherTracker,2013-06-16 15:00:00,
2013-06-16 10:05:00,84.3,75.9,30.07,SSW,194,2.0,11.0,76,0.00,,,0.00,WeatherTracker,2013-06-16 15:05:00,
2013-06-16 10:15:00,83.8,75.8,30.07,SSE,163,1.0,9.0,77,0.00,,,0.00,WeatherTracker,2013-06-16 15:15:00,
2013-06-16 10:20:00,83.7,76.1,30.07,SSE,159,2.0,9.0,78,0.00,,,0.00,WeatherTracker,2013-06-16 15:20:00,
2013-06-16 10:25:00,85.1,77.1,30.07,SE,135,4.0,10.0,77,0.00,,,0.00,WeatherTracker,2013-06-16 15:25:00,
2013-06-16 10:30:00,86.3,76.6,30.07,SSW,201,6.0,11.0,73,0.00,,,0.00,WeatherTracker,2013-06-16 15:30:00,
2013-06-16 10:40:00,85.6,75.9,30.07,SW,219,0.0,9.0,73,0.00,,,0.00,WeatherTracker,2013-06-16 15:40:00,
2013-06-16 10:45:00,85.0,76.2,30.07,SSE,148,2.0,9.0,75,0.00,,,0.00,WeatherTracker,2013-06-16 15:45:00,
2013-06-16 10:50:00,84.8,76.0,30.07,SW,215,4.0,7.0,75,0.00,,,0.00,WeatherTracker,2013-06-16 15:50:00,
2013-06-16 11:00:00,85.9,75.8,30.07,SW,218,4.0,7.0,72,0.00,,,0.00,WeatherTracker,2013-06-16 16:00:00,
2013-06-16 11:10:00,85.3,76.5,30.06,SSW,193,2.0,7.0,75,0.00,,,0.00,WeatherTracker,2013-06-16 16:10:00,
2013-06-16 11:15:00,84.9,76.5,30.06,SSW,193,2.0,6.0,76,0.00,,,0.00,WeatherTracker,2013-06-16 16:15:00,
2013-06-16 11:20:00,84.8,76.8,30.06,SSW,196,5.0,5.0,77,0.00,,,0.00,WeatherTracker,2013-06-16 16:20:00,
2013-06-16 11:25:00,85.0,77.0,30.06,South,171,4.0,6.0,77,0.00,,,0.00,WeatherTracker,2013-06-16 16:25:00,
2013-06-16 11:35:00,85.6,77.1,30.06,South,187,5.0,5.0,76,0.00,,,0.00,WeatherTracker,2013-06-16 16:35:00,
2013-06-16 11:45:00,87.5,76.5,30.05,SSE,161,4.0,9.0,70,0.00,,,0.00,WeatherTracker,2013-06-16 16:45:00,
2013-06-16 11:50:00,87.7,75.4,30.05,SSE,165,2.0,9.0,67,0.00,,,0.00,WeatherTracker,2013-06-16 16:50:00,
2013-06-16 12:00:00,88.0,77.0,30.05,SE,131,5.0,9.0,70,0.00,,,0.00,WeatherTracker,2013-06-16 17:00:00,
2013-06-16 12:10:00,87.4,76.8,30.05,SSW,207,6.0,9.0,71,0.00,,,0.00,WeatherTracker,2013-06-16 17:10:00,
2013-06-16 12:15:00,87.7,76.7,30.04,SW,228,4.0,9.0,70,0.00,,,0.00,WeatherTracker,2013-06-16 17:15:00,
2013-06-16 12:25:00,88.5,76.1,30.04,ESE,107,4.0,9.0,67,0.00,,,0.00,WeatherTracker,2013-06-16 17:25:00,
2013-06-16 12:30:00,88.4,76.0,30.04,SSW,195,6.0,10.0,67,0.00,,,0.00,WeatherTracker,2013-06-16 17:30:00,
2013-06-16 12:40:00,89.0,76.6,30.04,SSE,148,5.0,9.0,67,0.00,,,0.00,WeatherTracker,2013-06-16 17:40:00,
2013-06-16 12:45:00,89.2,76.3,30.03,SSW,209,2.0,9.0,66,0.00,,,0.00,WeatherTracker,2013-06-16 17:45:00,
2013-06-16 12:55:00,89.3,76.0,30.03,SW,226,3.0,8.0,65,0.00,,,0.00,WeatherTracker,2013-06-16 17:55:00,
2013-06-16 13:00:00,89.7,76.3,30.03,SSW,193,3.0,8.0,65,0.00,,,0.00,WeatherTracker,2013-06-16 18:00:00,
2013-06-16 13:10:00,89.4,75.6,30.03,SE,144,2.0,8.0,64,0.00,,,0.00,WeatherTracker,2013-06-16 18:10:00,
2013-06-16 13:15:00,89.5,76.1,30.02,South,180,5.0,7.0,65,0.00,,,0.00,WeatherTracker,2013-06-16 18:15:00,
2013-06-16 13:25:00,90.2,75.4,30.02,NE,53,3.0,10.0,62,0.00,,,0.00,WeatherTracker,2013-06-16 18:25:00,
2013-06-16 13:30:00,90.4,75.6,30.02,SSE,157,4.0,8.0,62,0.00,,,0.00,WeatherTracker,2013-06-16 18:30:00,
2013-06-16 13:40:00,90.2,74.9,30.01,South,183,4.0,9.0,61,0.00,,,0.00,WeatherTracker,2013-06-16 18:40:00,
2013-06-16 13:50:00,90.7,75.4,30.01,SSE,147,4.0,9.0,61,0.00,,,0.00,WeatherTracker,2013-06-16 18:50:00,
2013-06-16 14:00:00,90.2,74.9,30.00,South,187,3.0,9.0,61,0.00,,,0.00,WeatherTracker,2013-06-16 19:00:00,
2013-06-16 14:05:00,90.5,75.7,30.00,West,266,5.0,9.0,62,0.00,,,0.00,WeatherTracker,2013-06-16 19:05:00,
2013-06-16 14:10:00,91.1,76.2,30.00,South,175,5.0,13.0,62,0.00,,,0.00,WeatherTracker,2013-06-16 19:10:00,
2013-06-16 14:15:00,91.6,75.7,30.00,SSW,207,3.0,13.0,60,0.00,,,0.00,WeatherTracker,2013-06-16 19:15:00,
2013-06-16 14:25:00,90.5,74.7,30.00,South,188,2.0,8.0,60,0.00,,,0.00,WeatherTracker,2013-06-16 19:25:00,
2013-06-16 14:35:00,91.0,75.1,30.00,SSW,209,6.0,7.0,60,0.00,,,0.00,WeatherTracker,2013-06-16 19:35:00,
2013-06-16 14:40:00,91.5,76.1,29.99,SSW,196,0.0,7.0,61,0.00,,,0.00,WeatherTracker,2013-06-16 19:40:00,
2013-06-16 14:45:00,92.0,74.5,29.99,SW,214,5.0,9.0,57,0.00,,,0.00,WeatherTracker,2013-06-16 19:45:00,
2013-06-16 14:55:00,91.4,75.5,29.99,SW,229,4.0,9.0,60,0.00,,,0.00,WeatherTracker,2013-06-16 19:55:00,
2013-06-16 15:00:00,91.4,74.5,29.99,SW,214,1.0,9.0,58,0.00,,,0.00,WeatherTracker,2013-06-16 20:00:00,
2013-06-16 15:05:00,92.0,74.0,29.98,SW,235,6.0,9.0,56,0.00,,,0.00,WeatherTracker,2013-06-16 20:05:00,
2013-06-16 15:15:00,92.5,72.8,29.98,WSW,239,6.0,12.0,53,0.00,,,0.00,WeatherTracker,2013-06-16 20:15:00,
2013-06-16 15:25:00,93.1,74.5,29.98,West,259,6.0,8.0,55,0.00,,,0.00,WeatherTracker,2013-06-16 20:25:00,
2013-06-16 15:30:00,93.0,73.3,29.98,WSW,241,6.0,10.0,53,0.00,,,0.00,WeatherTracker,2013-06-16 20:30:00,
2013-06-16 15:35:00,92.7,73.6,29.98,SW,227,4.0,11.0,54,0.00,,,0.00,WeatherTracker,2013-06-16 20:35:00,
2013-06-16 15:40:00,92.6,72.9,29.98,SSW,210,3.0,11.0,53,0.00,,,0.00,WeatherTracker,2013-06-16 20:40:00,
2013-06-16 15:45:00,92.2,73.7,29.98,SSW,196,3.0,7.0,55,0.00,,,0.00,WeatherTracker,2013-06-16 20:45:00,
2013-06-16 15:50:00,91.6,74.2,29.98,South,173,4.0,7.0,57,0.00,,,0.00,WeatherTracker,2013-06-16 20:50:00,
2013-06-16 16:00:00,91.5,73.0,29.98,SSW,207,4.0,7.0,55,0.00,,,0.00,WeatherTracker,2013-06-16 21:00:00,
2013-06-16 16:05:00,91.7,73.2,29.98,SSE,150,4.0,7.0,55,0.00,,,0.00,WeatherTracker,2013-06-16 21:05:00,
2013-06-16 16:10:00,91.7,73.7,29.98,SSE,157,4.0,10.0,56,0.00,,,0.00,WeatherTracker,2013-06-16 21:10:00,
2013-06-16 16:15:00,92.0,74.0,29.98,SSW,200,3.0,10.0,56,0.00,,,0.00,WeatherTracker,2013-06-16 21:15:00,
2013-06-16 16:20:00,92.3,74.8,29.98,West,271,3.0,7.0,57,0.00,,,0.00,WeatherTracker,2013-06-16 21:20:00,
2013-06-16 16:30:00,92.3,73.8,29.98,WSW,251,4.0,9.0,55,0.00,,,0.00,WeatherTracker,2013-06-16 21:30:00,
2013-06-16 16:35:00,92.1,73.6,29.98,SSW,205,1.0,8.0,55,0.00,,,0.00,WeatherTracker,2013-06-16 21:35:00,
2013-06-16 16:45:00,92.2,73.1,29.98,West,264,7.0,8.0,54,0.00,,,0.00,WeatherTracker,2013-06-16 21:45:00,
2013-06-16 16:55:00,92.2,71.4,29.97,WSW,239,6.0,9.0,51,0.00,,,0.00,WeatherTracker,2013-06-16 21:55:00,
2013-06-16 17:00:00,92.3,71.5,29.97,SW,232,4.0,7.0,51,0.00,,,0.00,WeatherTracker,2013-06-16 22:00:00,
2013-06-16 17:05:00,92.4,72.2,29.97,WSW,248,3.0,7.0,52,0.00,,,0.00,WeatherTracker,2013-06-16 22:05:00,
2013-06-16 17:15:00,92.6,71.8,29.97,West,277,4.0,7.0,51,0.00,,,0.00,WeatherTracker,2013-06-16 22:15:00,
2013-06-16 17:20:00,92.6,71.8,29.97,WSW,254,5.0,7.0,51,0.00,,,0.00,WeatherTracker,2013-06-16 22:20:00,
2013-06-16 17:25:00,92.6,71.8,29.97,SW,221,5.0,7.0,51,0.00,,,0.00,WeatherTracker,2013-06-16 22:25:00,
2013-06-16 17:35:00,92.1,69.5,29.96,SSW,209,2.0,8.0,48,0.00,,,0.00,WeatherTracker,2013-06-16 22:35:00,
2013-06-16 17:40:00,91.9,69.4,29.96,South,172,1.0,8.0,48,0.00,,,0.00,WeatherTracker,2013-06-16 22:40:00,
2013-06-16 17:50:00,91.9,71.1,29.96,WSW,240,4.0,6.0,51,0.00,,,0.00,WeatherTracker,2013-06-16 22:50:00,
2013-06-16 17:55:00,91.8,72.2,29.97,SSW,204,4.0,7.0,53,0.00,,,0.00,WeatherTracker,2013-06-16 22:55:00,
2013-06-16 18:00:00,91.7,72.1,29.97,SW,225,4.0,7.0,53,0.00,,,0.00,WeatherTracker,2013-06-16 23:00:00,
2013-06-16 18:05:00,91.6,72.0,29.96,SW,224,5.0,7.0,53,0.00,,,0.00,WeatherTracker,2013-06-16 23:05:00,
2013-06-16 18:15:00,91.3,71.7,29.97,SW,232,0.0,5.0,53,0.00,,,0.00,WeatherTracker,2013-06-16 23:15:00,
2013-06-16 18:20:00,91.3,72.8,29.96,SSW,209,3.0,4.0,55,0.00,,,0.00,WeatherTracker,2013-06-16 23:20:00,
2013-06-16 18:30:00,90.9,73.5,29.97,SSW,192,1.0,4.0,57,0.00,,,0.00,WeatherTracker,2013-06-16 23:30:00,
2013-06-16 18:35:00,90.7,73.9,29.96,South,173,1.0,5.0,58,0.00,,,0.00,WeatherTracker,2013-06-16 23:35:00,
2013-06-16 18:40:00,90.5,74.2,29.97,South,174,0.0,5.0,59,0.00,,,0.00,WeatherTracker,2013-06-16 23:40:00,
2013-06-16 18:50:00,89.9,75.6,29.98,SSW,207,6.0,7.0,63,0.00,,,0.00,WeatherTracker,2013-06-16 23:50:00,
2013-06-16 18:55:00,89.5,76.1,29.98,South,177,4.0,8.0,65,0.00,,,0.00,WeatherTracker,2013-06-16 23:55:00,
2013-06-16 19:00:00,89.0,75.7,29.98,South,171,7.0,10.0,65,0.00,,,0.00,WeatherTracker,2013-06-17 00:00:00,
2013-06-16 19:10:00,86.8,74.5,29.99,South,180,4.0,11.0,67,0.00,,,0.00,WeatherTracker,2013-06-17 00:10:00,
2013-06-16 19:15:00,85.8,74.4,29.98,SSE,161,4.0,11.0,69,0.00,,,0.00,WeatherTracker,2013-06-17 00:15:00,
2013-06-16 19:20:00,85.4,74.0,29.99,SE,145,1.0,10.0,69,0.00,,,0.00,WeatherTracker,2013-06-17 00:20:00,
2013-06-16 19:25:00,84.8,73.9,29.99,South,180,1.0,8.0,70,0.00,,,0.00,WeatherTracker,2013-06-17 00:25:00,
2013-06-16 19:35:00,84.0,73.1,29.99,SSE,165,5.0,7.0,70,0.00,,,0.00,WeatherTracker,2013-06-17 00:35:00,
2013-06-16 19:40:00,83.5,73.1,29.99,SSE,157,0.0,7.0,71,0.00,,,0.00,WeatherTracker,2013-06-17 00:40:00,
2013-06-16 19:45:00,83.2,73.2,29.99,South,181,1.0,7.0,72,0.00,,,0.00,WeatherTracker,2013-06-17 00:45:00,
2013-06-16 19:50:00,82.9,72.9,30.00,South,180,0.0,4.0,72,0.00,,,0.00,WeatherTracker,2013-06-17 00:50:00,
2013-06-16 20:00:00,82.2,73.1,30.00,SSE,155,2.0,8.0,74,0.00,,,0.00,WeatherTracker,2013-06-17 01:00:00,
2013-06-16 20:05:00,81.9,72.8,30.00,SSW,212,2.0,8.0,74,0.00,,,0.00,WeatherTracker,2013-06-17 01:05:00,
2013-06-16 20:10:00,81.6,72.9,30.00,South,178,5.0,8.0,75,0.00,,,0.00,WeatherTracker,2013-06-17 01:10:00,
2013-06-16 20:20:00,81.2,72.9,30.00,SSE,163,2.0,7.0,76,0.00,,,0.00,WeatherTracker,2013-06-17 01:20:00,
2013-06-16 20:30:00,80.8,73.3,30.00,ESE,109,6.0,7.0,78,0.00,,,0.00,WeatherTracker,2013-06-17 01:30:00,
2013-06-16 20:35:00,80.6,73.5,30.00,SE,146,2.0,7.0,79,0.00,,,0.00,WeatherTracker,2013-06-17 01:35:00,
2013-06-16 20:45:00,80.5,74.1,30.01,SSW,192,0.0,9.0,81,0.00,,,0.00,WeatherTracker,2013-06-17 01:45:00,
2013-06-16 20:55:00,80.2,74.2,30.01,South,190,0.0,6.0,82,0.00,,,0.00,WeatherTracker,2013-06-17 01:55:00,
2013-06-16 21:00:00,80.2,74.6,30.01,SSW,202,2.0,5.0,83,0.00,,,0.00,WeatherTracker,2013-06-17 02:00:00,
2013-06-16 21:05:00,80.1,74.8,30.01,SSW,204,4.0,5.0,84,0.00,,,0.00,WeatherTracker,2013-06-17 02:05:00,
2013-06-16 21:10:00,80.0,74.7,30.00,SSW,194,4.0,7.0,84,0.00,,,0.00,WeatherTracker,2013-06-17 02:10:00,
2013-06-16 21:15:00,79.9,75.0,30.00,South,169,1.0,7.0,85,0.00,,,0.00,WeatherTracker,2013-06-17 02:15:00,
2013-06-16 21:20:00,79.7,74.8,30.00,South,174,1.0,6.0,85,0.00,,,0.00,WeatherTracker,2013-06-17 02:20:00,
2013-06-16 21:25:00,79.6,75.0,30.01,South,188,2.0,7.0,86,0.00,,,0.00,WeatherTracker,2013-06-17 02:25:00,
2013-06-16 21:30:00,79.5,74.9,30.01,SSE,159,6.0,7.0,86,0.00,,,0.00,WeatherTracker,2013-06-17 02:30:00,
2013-06-16 21:40:00,79.2,75.0,30.02,SSE,159,2.0,6.0,87,0.00,,,0.00,WeatherTracker,2013-06-17 02:40:00,
2013-06-16 21:45:00,79.1,74.9,30.02,SE,130,2.0,6.0,87,0.00,,,0.00,WeatherTracker,2013-06-17 02:45:00,
2013-06-16 21:50:00,78.9,75.0,30.02,SSE,150,6.0,8.0,88,0.00,,,0.00,WeatherTracker,2013-06-17 02:50:00,
2013-06-16 21:55:00,78.7,74.8,30.02,South,173,1.0,8.0,88,0.00,,,0.00,WeatherTracker,2013-06-17 02:55:00,
2013-06-16 22:00:00,78.6,74.7,30.02,SSW,198,3.0,8.0,88,0.00,,,0.00,WeatherTracker,2013-06-17 03:00:00,
2013-06-16 22:10:00,78.3,74.8,30.01,South,173,4.0,8.0,89,0.00,,,0.00,WeatherTracker,2013-06-17 03:10:00,
2013-06-16 22:20:00,78.1,74.6,30.01,SSW,192,1.0,5.0,89,0.00,,,0.00,WeatherTracker,2013-06-17 03:20:00,
2013-06-16 22:25:00,78.0,74.5,30.01,SSE,160,4.0,5.0,89,0.00,,,0.00,WeatherTracker,2013-06-17 03:25:00,
2013-06-16 22:30:00,77.8,74.6,30.01,South,180,0.0,5.0,90,0.00,,,0.00,WeatherTracker,2013-06-17 03:30:00,
2013-06-16 22:35:00,77.7,74.5,30.01,South,182,0.0,5.0,90,0.00,,,0.00,WeatherTracker,2013-06-17 03:35:00,
2013-06-16 22:40:00,77.6,74.4,30.01,South,169,0.0,5.0,90,0.00,,,0.00,WeatherTracker,2013-06-17 03:40:00,
2013-06-16 22:50:00,77.4,74.2,30.01,South,187,1.0,4.0,90,0.00,,,0.00,WeatherTracker,2013-06-17 03:50:00,
2013-06-16 23:00:00,77.2,74.4,30.01,SSE,159,0.0,5.0,91,0.00,,,0.00,WeatherTracker,2013-06-17 04:00:00,
2013-06-16 23:05:00,77.1,74.3,30.00,South,177,2.0,6.0,91,0.00,,,0.00,WeatherTracker,2013-06-17 04:05:00,
2013-06-16 23:10:00,77.0,74.5,30.01,South,170,0.0,6.0,92,0.00,,,0.00,WeatherTracker,2013-06-17 04:10:00,
2013-06-16 23:15:00,76.9,74.4,30.01,South,170,0.0,6.0,92,0.00,,,0.00,WeatherTracker,2013-06-17 04:15:00,
2013-06-16 23:20:00,76.8,74.3,30.01,South,178,0.0,5.0,92,0.00,,,0.00,WeatherTracker,2013-06-17 04:20:00,
2013-06-16 23:25:00,76.7,74.2,30.00,South,184,3.0,6.0,92,0.00,,,0.00,WeatherTracker,2013-06-17 04:25:00,
2013-06-16 23:35:00,76.6,74.4,30.01,South,178,0.0,4.0,93,0.00,,,0.00,WeatherTracker,2013-06-17 04:35:00,
2013-06-16 23:40:00,76.6,74.4,30.01,SSW,194,2.0,4.0,93,0.00,,,0.00,WeatherTracker,2013-06-17 04:40:00,
2013-06-16 23:45:00,76.5,74.3,30.01,South,171,4.0,4.0,93,0.00,,,0.00,WeatherTracker,2013-06-17 04:45:00,
2013-06-16 23:50:00,76.4,74.2,30.01,South,178,0.0,5.0,93,0.00,,,0.00,WeatherTracker,2013-06-17 04:50:00,